Garrison, ND

2:20 PM CDT on September 28, 2016 (GMT -0500)
Garrison

Weather History for KN60 - October, 2012

Change the Weather History Date:

Wednesday, October 24, 2012

  Actual Average Record
Temperature  
Mean Temperature 33 °F -  
Max Temperature 36 °F 48 °F 73 °F (2007)
Min Temperature 29 °F 28 °F 19 °F (1997)
Degree Days  
Heating Degree Days 32    
Month to date heating degree days 510  
Moisture  
Dew Point 27 °F    
Average Humidity 85    
Maximum Humidity 100    
Minimum Humidity 69    
Precipitation  
Precipitation 0.00 in - - ()
Month to date precipitation 1.99  
Year to date precipitation 15.13  
Sea Level Pressure  
Sea Level Pressure 30.04 in    
Wind  
Wind Speed 13 mph (WNW)    
Max Wind Speed 25 mph    
Max Gust Speed 31 mph    
Averages and records for this station are not official NWS values.
T = Trace of Precipitation, MM = Missing Value Source: NWS Daily Summary

Daily Weather History Graph

Daily Weather History Graph

Search for Another Location

Airport or City:

Trip Planner

Search our weather history database for the weather conditions in past years. The results will help you decide how hot, cold, wet, or windy it might be!

Date:

Astronomy

Oct. 24, 2012 Rise Set
Actual Time 8:18 AM CDT 6:40 PM CDT
Civil Twilight 7:46 AM CDT 7:11 PM CDT
Nautical Twilight 7:10 AM CDT 7:47 PM CDT
Astronomical Twilight 6:35 AM CDT 8:23 PM CDT
Moon 4:14 PM CDT (10/24) 2:55 AM CDT (10/24)
Length of Visible Light 11h 25m
Length of Day
10h 21m
Waxing Gibbous, 76% of the Moon is Illuminated
Oct 24
Waxing Gibbous
Oct 29
Full
Nov 6
Last Quarter
Nov 13
New
Nov 20
First Quarter

Hourly Weather History & Observations

Time (CDT) Temp. Windchill Dew Point Humidity Pressure Visibility Wind Dir Wind Speed Gust Speed Precip Events Conditions
12:52 AM 34.0 °F 26.6 °F 32.0 °F 92% 29.90 in - WNW 9.2 mph - N/A   Unknown
1:52 AM 32.0 °F - 32.0 °F 100% 29.92 in - Calm Calm - N/A   Unknown
2:52 AM 32.0 °F 26.4 °F 32.0 °F 100% 29.96 in - West 5.8 mph - N/A   Unknown
3:52 AM 30.9 °F 21.7 °F 30.9 °F 100% 29.96 in - West 11.5 mph - N/A   Unknown
4:52 AM 30.0 °F 18.7 °F 30.0 °F 100% 29.95 in - WNW 16.1 mph 23.0 mph N/A   Unknown
5:52 AM 30.0 °F 16.9 °F 28.0 °F 92% 29.98 in - WNW 21.9 mph 31.1 mph N/A   Unknown
6:52 AM 28.9 °F 17.7 °F 28.0 °F 96% 30.01 in - WNW 15.0 mph 21.9 mph N/A   Unknown
7:52 AM 28.9 °F 20.4 °F 28.9 °F 100% 30.02 in - West 9.2 mph - N/A   Unknown
8:52 AM 30.0 °F 21.7 °F 30.0 °F 100% 30.04 in - West 9.2 mph - N/A   Unknown
9:52 AM 30.0 °F 19.1 °F 28.9 °F 96% 30.06 in - WNW 15.0 mph - N/A   Unknown
10:52 AM 30.9 °F 20.7 °F 28.0 °F 89% 30.07 in - WNW 13.8 mph - N/A   Unknown
11:52 AM 30.9 °F 19.8 °F 28.0 °F 89% 30.07 in - WNW 16.1 mph - N/A   Unknown
12:52 PM 32.0 °F 21.2 °F 25.0 °F 75% 30.07 in - WNW 16.1 mph - N/A   Unknown
1:52 PM 33.1 °F 23.0 °F 25.0 °F 72% 30.07 in - WNW 15.0 mph - N/A   Unknown
2:52 PM 36.0 °F 26.3 °F 27.0 °F 70% 30.05 in - WNW 16.1 mph 25.3 mph N/A   Unknown
3:52 PM 34.0 °F 23.4 °F 25.0 °F 70% 30.05 in - WNW 17.3 mph 25.3 mph N/A   Unknown
4:52 PM 33.1 °F 23.0 °F 24.1 °F 70% 30.07 in - WNW 15.0 mph - N/A   Unknown
5:52 PM 32.0 °F 22.1 °F 24.1 °F 73% 30.09 in - WNW 13.8 mph - N/A   Unknown
6:52 PM 30.9 °F 24.3 °F 24.1 °F 76% 30.11 in - WNW 6.9 mph - N/A   Unknown
7:52 PM 32.0 °F 27.5 °F 25.0 °F 75% 30.12 in - West 4.6 mph - N/A   Unknown
8:52 PM 30.9 °F 24.3 °F 26.1 °F 82% 30.12 in - West 6.9 mph - N/A   Unknown
9:52 PM 30.9 °F 24.3 °F 26.1 °F 82% 30.10 in - WNW 6.9 mph - N/A   Unknown
10:52 PM 28.9 °F 25.2 °F 25.0 °F 85% 30.13 in - West 3.5 mph - N/A   Unknown
11:52 PM 30.9 °F 23.5 °F 26.1 °F 82% 30.13 in - WNW 8.1 mph - N/A   Unknown